Flag for U.S.A. Weather past 2 weeks in Albuquerque, New Mexico, U.S.A.

Now
75 °F

Mostly cloudy.


Feels Like: 78 °F
Forecast: 67 / 88 °F
Wind: No wind

Location: Albuquerque International Airport

Current Time: Jul 4, 2015 at 2:03:33 AM

Latest Report: Jul 4, 2015 at 12:52 AM


Visibility: 10 mi

Pressure: 29.87 "Hg (25.11 "Hg at 1510m altitude)

Humidity: 47%

Dew point: 53 °F

Location of AlbuquerqueLocation

Historic Weather in Albuquerque — Graph

°F

Albuquerque temperature yesterday

Maximum temperature yesterday: 87 °F (at 2:52 PM)
Minimum temperature yesterday: 69 °F (at 1:52 AM)
Average temperature yesterday: 77 °F

Past Weeks' High & Low Weather Summary

 TemperatureHumidityPressure
High101 °F (Jun 22, 2:52 PM)73% (Jun 28, 4:52 AM)30.26 "Hg (Jun 28, 4:52 AM)
Low63 °F (Jun 28, 5:52 AM)6% (Jun 21, 2:52 PM)29.69 "Hg (Jun 20, 6:52 PM)
Average81 °F34%29.89 "Hg
* Reported Jun 19 12:52 AM — Jul 4 12:52 AM, Albuquerque, Weather by CustomWeather, © 2015

Note: Actual official high and low records may vary slightly from our data, if they occured in-between our weather recording intervals... More about our weather records

Advertising

Albuquerque weather history for previous 24 hours

 ConditionsComfort  
Time TempWeatherWind HumidityBarometerVisibility
12:52 AM
Sat, Jul 4
75 °FMostly cloudy.No wind47%29.87 "Hg10 mi
11:52 PM
Fri, Jul 3
74 °FPassing clouds.3 mph52%29.87 "Hg10 mi
10:52 PM75 °FPassing clouds.7 mph50%29.88 "Hg10 mi
9:52 PM73 °FPassing clouds.12 mph59%29.88 "Hg10 mi
8:52 PM79 °FPartly sunny.9 mph44%29.83 "Hg10 mi
7:52 PM79 °FBroken clouds.12 mph47%29.82 "Hg10 mi
6:52 PM82 °FBroken clouds.12 mph43%29.82 "Hg10 mi
5:52 PM86 °FThunderstorms. Broken clouds.17 mph33%29.79 "Hg10 mi
4:52 PM87 °FBroken clouds.9 mph32%29.81 "Hg10 mi
3:52 PM87 °FBroken clouds.3 mph32%29.82 "Hg10 mi
2:52 PM87 °FBroken clouds.3 mph33%29.85 "Hg10 mi
1:52 PM83 °FBroken clouds.5 mph38%29.90 "Hg10 mi
12:52 PM81 °FBroken clouds.3 mph42%29.92 "Hg10 mi
11:52 AM81 °FBroken clouds.No wind44%29.93 "Hg10 mi
10:52 AM77 °FBroken clouds.5 mph50%29.96 "Hg10 mi
9:52 AM76 °FBroken clouds.8 mph54%29.96 "Hg10 mi
8:52 AM74 °FBroken clouds.9 mph52%29.97 "Hg10 mi
7:52 AM72 °FBroken clouds.9 mph53%29.96 "Hg10 mi
6:52 AM71 °FPartly cloudy.10 mph55%29.95 "Hg10 mi
5:52 AM71 °FPartly cloudy.13 mph55%29.93 "Hg10 mi
4:52 AM69 °FPartly cloudy.5 mph68%29.90 "Hg10 mi
3:52 AM70 °FMostly cloudy.8 mph66%29.89 "Hg10 mi
2:52 AM69 °FOvercast.5 mph70%29.88 "Hg10 mi
Weather by CustomWeather, © 2015

See weather overviewHow to use our weather pages